Regional Weather Roundup
Issued by NWS

Home | Current Version | Previous Version | Text Only | Print | Product List | Glossary On
Versions: 1 2 3 4 5 6 7 8 9 10 11 12 13 14 15 16 17 18 19 20 21 22 23 24 25 26 27 28 29 30 31 32 33 34 35 36 37 38 39 40 41 42 43 44 45 46 47 48 49 50
000
ASUS43 KMKX 011500
RWRWI

WISCONSIN REGIONAL WEATHER ROUNDUP
NATIONAL WEATHER SERVICE MILWAUKEE/SULLIVAN WI
1000 AM CDT WED JUL 01 2015

NOTE: "FAIR" INDICATES FEW OR NO CLOUDS BELOW 12,000 FEET WITH NO
SIGNIFICANT WEATHER AND/OR OBSTRUCTIONS TO VISIBILITY.

WIZ001-002-006>008-014>016-023>028-011600-
NORTHWEST WISCONSIN

CITY           SKY/WX    TMP DP  RH WIND       PRES   REMARKS
SUPERIOR ARPT  CLOUDY    62  52  71 CALM      30.02S
ASHLAND        SUNNY     61  52  72 CALM      30.04S
HAYWARD        SUNNY     60  48  64 CALM      30.04R
SIREN          PTSUNNY   63  46  54 SE6       30.03S
CUMBERLAND     PTSUNNY   57  45  62 SE3       30.04R
RICE LAKE      PTSUNNY   59  44  58 SE6       30.05S
CHETEK         PTSUNNY   59  47  66 CALM      30.04S
LADYSMITH      MOSUNNY   60  46  60 CALM      30.05S
EAU CLAIRE     PTSUNNY   62  47  57 NE8       30.01F
MENOMONIE      PTSUNNY   60  49  65 E5        30.03S
NEW RICHMOND   PTSUNNY   60  47  62 E5        30.02F
OSCEOLA        PTSUNNY   61  47  60 E7        30.04F
$$

WIZ003>005-009-010-017-018-011600-
NORTH CENTRAL WISCONSIN

CITY           SKY/WX    TMP DP  RH WIND       PRES   REMARKS
MANITOWISH WTR SUNNY     57  46  66 N6        30.03S
ARBOR VITAE    SUNNY     58  45  62 N6        30.03S
WOODRUFF       SUNNY     58  45  62 N6        30.03S
RHINELANDER    SUNNY     58  43  57 NE10      30.03S
EAGLE RIVER    SUNNY     57  43  59 NE8       30.02S
LAND O LAKES   SUNNY     57  43  59 NE7       30.03F
PHILLIPS       PTSUNNY   57  45  62 CALM      30.03S
TOMAHAWK       SUNNY     59  46  62 NE5       30.03F
MEDFORD        MOSUNNY   57  46  65 NE7       30.03S
MERRILL        SUNNY     57  46  67 N6        30.03S
$$

WIZ029-030-035-036-043>047-011600-
CENTRAL WISCONSIN

CITY           SKY/WX    TMP DP  RH WIND       PRES   REMARKS
WAUSAU         MOSUNNY   60  43  53 N7        30.00F
MOSINEE        SUNNY     59  46  63 N9        30.02S
MARSHFIELD     PTSUNNY   60  44  55 NE7       30.02S
STEVENS POINT  SUNNY     58  43  58 N7        30.01S
WAUPACA        SUNNY     60  47  61 N6        30.00S
WAUTOMA        NOT AVBL
WISC RAPIDS    MOSUNNY   61  44  53 N8        30.01F
CAMP DOUGLAS   NOT AVBL
$$

WIZ011>013-019>022-031-037>040-048>050-011600-
NORTHEAST WISCONSIN

CITY           SKY/WX    TMP DP  RH WIND       PRES   REMARKS
ANTIGO         SUNNY     57  46  66 N9        30.01S
SHAWANO        SUNNY     59  46  63 NE8       29.99F
OCONTO         CLOUDY    51  47  87 N6        29.99S
STURGEON BAY   CLOUDY    52  46  82 N9        30.00S
GREEN BAY      MOSUNNY   59  48  67 NE6       29.99S
MANITOWOC      CLOUDY    55  52  88 MISG      29.98S
APPLETON       MOSUNNY   55  45  67 N7        29.99S
CLINTONVILLE   SUNNY     59  43  55 N7        29.99S
OSHKOSH        SUNNY     58  47  66 VRB5      29.98S
$$

WIZ032>034-041-042-053>061-011600-
SOUTHWEST WISCONSIN

CITY           SKY/WX    TMP DP  RH WIND       PRES   REMARKS
LA CROSSE      MOSUNNY   62  49  62 VRB5      30.00S
SPARTA         SUNNY     62  44  52 NE7       30.02S
VIROQUA        MOSUNNY   60  49  67 E7        30.00F
BOSCOBEL       SUNNY     63  50  62 NE5       30.00S
PRAIRIE DU CHI SUNNY     62  50  66 E3        29.99S
PLATTEVILLE    MOSUNNY   62  57  84 NE8       29.98F
$$

WIZ056-057-062-063-064-067-068-011600-
SOUTH CENTRAL WISCONSIN

CITY           SKY/WX    TMP DP  RH WIND       PRES   REMARKS
REEDSBURG      SUNNY     60  46  59 NE7       30.00S
BARABOO/DELLS  SUNNY     60  42  52 N5        30.00S
LONE ROCK      NOT AVBL
MINERAL POINT  MOSUNNY   63  54  72 E7        29.99S
MADISON        MOSUNNY   63  47  55 N6        29.98F
MIDDLETON      SUNNY     63  46  54 N6        29.99F
WATERTOWN      SUNNY     60  49  67 N6        29.98S
MONROE         CLOUDY    59  54  82 N7        29.98S
JANESVILLE     CLOUDY    63  55  77 CALM      29.97S
$$

WIZ051-052-058>065-066-070>072-011600-
SOUTHEAST WISCONSIN

CITY           SKY/WX    TMP DP  RH WIND       PRES   REMARKS
MILWAUKEE      MOSUNNY   61  49  64 NE10      29.97F
WAUKESHA       MOSUNNY   59  48  67 N5        29.98S
MILWAUKEE/TIMM SUNNY     61  46  59 CALM      29.99R
RACINE         SUNNY     62  47  57 N12       29.99S
BURLINGTON     MOSUNNY   62  53  72 N6        29.97S
KENOSHA        MOSUNNY   63  51  65 N6        29.98R
FOND DU LAC    SUNNY     60  48  64 N3        29.98F
SHEBOYGAN      CLOUDY    57  50  77 N6        29.97S
WEST BEND      MOSUNNY   59  46  63 NW5       29.98S
JUNEAU         SUNNY     58  47  68 NW6       29.99F
$$

LSZ147-162-011600-
LAKE SUPERIOR

STATION/POSITION TIME  TEMP    WIND        PRES    WAVE
                       AIR SEA DIR/SP/G            HT/PER
                 (UTC) (F)     (DEG/KT/KT) (MB)    (FT/S)
W MID LAKE BUOY  1350   42 38  220/  6/  6 1017.7R   1
DEVILS ISLAND    1400   56     190/  1/  3 1017.3F
SAXON HARBOR     1400   56        CALM     1016.9
$$

LMZ867-665-643>646-011600-
LAKE MICHIGAN

STATION/POSITION TIME  TEMP    WIND        PRES    WAVE
                       AIR SEA DIR/SP/G            HT/PER
                 (UTC) (F)     (DEG/KT/KT) (MB)    (FT/S)
CHAMBERS ISLAND  1400   52     330/ 10/ 14 1015.2S
N MID LAKE BUOY  1350   45 40  330/ 10/ 10 1014.4R   2/ 4
NORTHPORT PIER   1400   52     340/ 15/ 18 1014.9S
SISTER BAY       1414   52     360/ 16/ 21   N/A
ALGOMA LAKESHORE 1440          320/  7/  9   N/A
KEWAUNEE LAKESHO 1400   53      10/  5/  8 1014.3R
SHEBOYGAN LAKESH 1400   54      10/  9/ 10 1015.4R
PORT WASHINGTON  1400   61      10/  4/  8 1015.9R
ATWATER BUOY     1430   57      30/  6/ 10 1016.4R
MILWAUKEE LAKESH 1400   56      40/  9/ 11   N/A
KENOSHA   LAKESH 1400   58      50/  5/  6 1014.9S
$$

TC  - TEMPERATURE IN CELSIUS
VSB - VISIBILITY IN STATUTE MILES
WCI - WIND CHILL INDEX
HX  - HEAT INDEX



USA.gov is the U.S. government's official web portal to all federal, state and local government web resources and services.